RESURS-DK 1

Last updated on Wed Jul 02 2025 00:02:14 GMT+0000 (Coordinated Universal Time)

1 29228U 06021A 25182.37970471 .00001804 00000+0 11398-3 0 9995 2 29228 69.9314 166.1745 0003954 187.8628 172.2476 15.11040422 49549
UTC large
Height (km)
Speed (km/s)
/
Latitude / Longitude
Inclination (degrees)
Orbital Period (minutes)
Azimuth
Elevation
Range (km)
Doppler Factor

Next 0 passes for location: London (51.5072 / 0.1276)

Sorry there are no passes over London.